TimePDT,TemperatureF,Dew PointF,Humidity,Sea Level PressureIn,VisibilityMPH,Wind Direction,Wind SpeedMPH,Gust SpeedMPH,PrecipitationIn,Events,Conditions,WindDirDegrees,DateUTC
12:56 AM,43.0,42.1,97,30.19,10.0,Calm,Calm,-,N/A,,Clear,0,2012-10-18 07:56:00
1:56 AM,44.1,42.1,93,30.18,10.0,Calm,Calm,-,N/A,,Clear,0,2012-10-18 08:56:00
3:56 AM,41.0,39.9,96,30.16,10.0,Calm,Calm,-,N/A,,Clear,0,2012-10-18 10:56:00
4:56 AM,41.0,39.0,93,30.14,10.0,Calm,Calm,-,N/A,,Clear,0,2012-10-18 11:56:00
5:54 AM,39.2,39.2,100,30.12,2.0,Calm,Calm,-,N/A,,Clear,0,2012-10-18 12:54:00
5:56 AM,39.9,39.0,97,30.13,2.0,Calm,Calm,-,N/A,,Clear,0,2012-10-18 12:56:00
6:03 AM,39.2,39.2,100,30.12,7.0,Calm,Calm,-,N/A,,Clear,0,2012-10-18 13:03:00
7:56 AM,39.9,39.0,97,30.09,10.0,Calm,Calm,-,N/A,,Scattered Clouds,0,2012-10-18 14:56:00
9:56 AM,48.9,46.0,90,30.07,10.0,Calm,Calm,-,N/A,,Partly Cloudy,0,2012-10-18 16:56:00
10:56 AM,53.1,44.1,71,30.05,10.0,Calm,Calm,-,N/A,,Clear,0,2012-10-18 17:56:00
11:56 AM,57.0,43.0,59,30.04,10.0,Calm,Calm,-,N/A,,Clear,0,2012-10-18 18:56:00
12:56 PM,60.1,41.0,49,30.01,10.0,Variable,3.5,-,N/A,,Clear,0,2012-10-18 19:56:00
1:56 PM,63.0,42.1,46,29.98,10.0,NW,3.5,-,N/A,,Clear,320,2012-10-18 20:56:00
2:56 PM,66.9,43.0,42,29.95,10.0,Calm,Calm,-,N/A,,Clear,0,2012-10-18 21:56:00
3:56 PM,66.9,46.0,47,29.92,10.0,SSE,4.6,-,N/A,,Clear,160,2012-10-18 22:56:00
4:56 PM,66.0,48.0,52,29.92,10.0,SSE,6.9,-,N/A,,Clear,150,2012-10-18 23:56:00
5:56 PM,63.0,48.0,58,29.90,10.0,SSE,3.5,-,N/A,,Clear,150,2012-10-19 00:56:00
6:56 PM,60.1,48.0,64,29.92,10.0,SSW,4.6,-,N/A,,Clear,200,2012-10-19 01:56:00
7:56 PM,59.0,48.9,69,29.95,10.0,Calm,Calm,-,N/A,,Scattered Clouds,0,2012-10-19 02:56:00
8:56 PM,57.9,50.0,75,29.94,10.0,SSE,5.8,-,N/A,,Overcast,150,2012-10-19 03:56:00
10:56 PM,55.9,53.1,90,29.95,10.0,SSE,4.6,-,0.01,Rain,Light Rain,160,2012-10-19 05:56:00
11:56 PM,55.9,48.0,75,29.95,10.0,SSE,5.8,-,0.01,,Overcast,150,2012-10-19 06:56:00